| time (UTC) | temp C | wind direction | speed KPH | gust KPH | rain 1hr cm | rain 24hr cm | rain mn cm | humidity % | barometer mb |
| 20260508173018 | 16 | 102 | 0.0 | 8.0 | 0.00 | 0.00 | 0.00 | 48 | 1009.6 |
| 20260508171528 | 16 | 77 | 0.0 | 0.0 | 0.00 | 0.00 | 0.00 | 48 | 1009.8 |
| 20260508170014 | 16 | 94 | 0.0 | 11.3 | 0.00 | 0.00 | 0.00 | 47 | 1009.9 |
| 20260508164512 | 16 | 90 | 0.0 | 0.0 | 0.00 | 0.00 | 0.00 | 51 | 1009.8 |
| 20260508163008 | 15 | 89 | 0.0 | 17.7 | 0.00 | 0.00 | 0.00 | 53 | 1009.8 |
| 20260508160002 | 15 | 69 | 0.0 | 12.9 | 0.00 | 0.00 | 0.00 | 56 | 1009.9 |
| 20260508154601 | 13 | 126 | 0.0 | 4.8 | 0.00 | 0.00 | 0.00 | 59 | 1009.9 |
| 20260508153057 | 13 | 111 | 0.0 | 9.7 | 0.00 | 0.00 | 0.00 | 58 | 1009.8 |
| 20260508151553 | 12 | 196 | 0.0 | 8.0 | 0.00 | 0.00 | 0.00 | 63 | 1009.9 |
| 20260508150111 | 12 | 214 | 0.0 | 12.9 | 0.00 | 0.00 | 0.00 | 67 | 1010.1 |
| 20260508144552 | 11 | 188 | 0.0 | 11.3 | 0.00 | 0.00 | 0.00 | 71 | 1010.2 |
| 20260508143049 | 10 | 188 | 0.0 | 8.0 | 0.00 | 0.00 | 0.00 | 72 | 1010.5 |
| 20260508141549 | 10 | 184 | 0.0 | 0.0 | 0.00 | 0.00 | 0.00 | 76 | 1010.6 |
| 20260508140051 | 9 | 190 | 0.0 | 0.0 | 0.00 | 0.00 | 0.00 | 79 | 1010.8 |
| 20260508134544 | 8 | 217 | 0.0 | 0.0 | 0.00 | 0.00 | 0.00 | 84 | 1010.8 |
| 20260508133044 | 7 | 213 | 0.0 | 0.0 | 0.00 | 0.00 | 0.00 | 86 | 1010.9 |
| 20260508131540 | 7 | 245 | 0.0 | 0.0 | 0.00 | 0.00 | 0.00 | 89 | 1011.0 |
| 20260508130039 | 6 | 245 | 0.0 | 0.0 | 0.00 | 0.00 | 0.00 | 89 | 1010.9 |
| 20260508124539 | 6 | 323 | 0.0 | 0.0 | 0.00 | 0.00 | 0.00 | 90 | 1011.0 |
| 20260508123038 | 5 | 330 | 0.0 | 0.0 | 0.00 | 0.00 | 0.00 | 90 | 1011.2 |
| 20260508121535 | 5 | 330 | 0.0 | 0.0 | 0.00 | 0.00 | 0.00 | 90 | 1010.7 |
| 20260508120032 | 4 | 330 | 0.0 | 0.0 | 0.00 | 0.00 | 0.00 | 89 | 1009.9 |
| 20260508114534 | 4 | 330 | 0.0 | 0.0 | 0.00 | 0.00 | 0.00 | 87 | 1009.8 |
| 20260508113044 | 4 | 330 | 0.0 | 0.0 | 0.00 | 0.00 | 0.00 | 87 | 1009.6 |
| 20260508111528 | 4 | 330 | 0.0 | 0.0 | 0.00 | 0.00 | 0.00 | 86 | 1009.4 |
| 20260508110026 | 4 | 330 | 0.0 | 0.0 | 0.00 | 0.00 | 0.00 | 86 | 1009.4 |
| 20260508104525 | 5 | 331 | 0.0 | 0.0 | 0.00 | 0.00 | 0.00 | 85 | 1008.9 |
| 20260508103026 | 5 | 330 | 0.0 | 0.0 | 0.00 | 0.00 | 0.00 | 84 | 1008.7 |
| 20260508101528 | 5 | 329 | 0.0 | 0.0 | 0.00 | 0.00 | 0.00 | 83 | 1008.0 |
| 20260508094518 | 5 | 329 | 0.0 | 0.0 | 0.00 | 0.00 | 0.00 | 81 | 1008.4 |
| 20260508093016 | 6 | 329 | 0.0 | 0.0 | 0.00 | 0.00 | 0.00 | 81 | 1008.4 |
| 20260508091513 | 6 | 329 | 0.0 | 0.0 | 0.00 | 0.00 | 0.00 | 81 | 1008.5 |
| 20260508090011 | 6 | 329 | 0.0 | 0.0 | 0.00 | 0.00 | 0.00 | 81 | 1008.5 |
| 20260508084510 | 6 | 329 | 0.0 | 0.0 | 0.00 | 0.00 | 0.00 | 82 | 1008.6 |
| 20260508083009 | 6 | 329 | 0.0 | 0.0 | 0.00 | 0.00 | 0.00 | 81 | 1008.9 |
| 20260508081507 | 6 | 329 | 0.0 | 0.0 | 0.00 | 0.00 | 0.00 | 80 | 1009.1 |
| 20260508080003 | 7 | 329 | 0.0 | 0.0 | 0.00 | 0.00 | 0.00 | 78 | 1009.1 |
| 20260508074607 | 7 | 329 | 0.0 | 0.0 | 0.00 | 0.00 | 0.00 | 76 | 1009.7 |
| 20260508073106 | 7 | 329 | 0.0 | 0.0 | 0.00 | 0.00 | 0.00 | 75 | 1009.5 |
| 20260508071556 | 7 | 335 | 0.0 | 0.0 | 0.00 | 0.00 | 0.00 | 73 | 1009.3 |
| 20260508070051 | 8 | 335 | 0.0 | 0.0 | 0.00 | 0.00 | 0.00 | 71 | 1009.1 |
| 20260508064602 | 9 | 335 | 0.0 | 0.0 | 0.00 | 0.00 | 0.00 | 69 | 1009.2 |
| 20260508063043 | 10 | 335 | 0.0 | 0.0 | 0.00 | 0.00 | 0.00 | 67 | 1009.4 |
| 20260508061549 | 10 | 336 | 0.0 | 0.0 | 0.00 | 0.00 | 0.00 | 66 | 1009.4 |
| 20260508060040 | 10 | 336 | 0.0 | 0.0 | 0.00 | 0.00 | 0.00 | 65 | 1009.5 |
| 20260508054603 | 10 | 336 | 0.0 | 0.0 | 0.00 | 0.00 | 0.00 | 66 | 1009.9 |
| 20260508053037 | 10 | 320 | 0.0 | 0.0 | 0.00 | 0.00 | 0.00 | 65 | 1010.1 |
| 20260508051537 | 11 | 236 | 0.0 | 0.0 | 0.00 | 0.00 | 0.00 | 65 | 1009.4 |
| 20260508050040 | 11 | 298 | 0.0 | 0.0 | 0.00 | 0.00 | 0.00 | 63 | 1009.4 |
| 20260508044536 | 12 | 360 | 0.0 | 0.0 | 0.00 | 0.00 | 0.00 | 61 | 1009.3 |
| 20260508043043 | 12 | 360 | 0.0 | 0.0 | 0.00 | 0.00 | 0.00 | 60 | 1009.3 |
| 20260508041536 | 12 | 355 | 0.0 | 11.3 | 0.00 | 0.00 | 0.00 | 57 | 1009.8 |
| 20260508040043 | 12 | 308 | 0.0 | 0.0 | 0.00 | 0.00 | 0.00 | 55 | 1009.3 |
| 20260508034535 | 12 | 307 | 0.0 | 0.0 | 0.00 | 0.00 | 0.00 | 52 | 1009.1 |
| 20260508033034 | 13 | 305 | 0.0 | 0.0 | 0.00 | 0.00 | 0.00 | 52 | 1008.9 |
| 20260508031533 | 13 | 269 | 0.0 | 0.0 | 0.00 | 0.00 | 0.00 | 50 | 1009.0 |
| 20260508030033 | 13 | 259 | 6.4 | 14.5 | 0.00 | 0.00 | 0.00 | 49 | 1009.0 |
| 20260508024633 | 13 | 320 | 0.0 | 16.1 | 0.00 | 0.00 | 0.00 | 46 | 1008.9 |
| 20260508023031 | 14 | 231 | 11.3 | 25.7 | 0.00 | 0.00 | 0.00 | 46 | 1009.1 |
| 20260508021531 | 14 | 252 | 1.6 | 12.9 | 0.00 | 0.00 | 0.00 | 44 | 1009.1 |
| 20260508020033 | 15 | 315 | 0.0 | 0.0 | 0.00 | 0.00 | 0.00 | 44 | 1009.1 |
| 20260508014531 | 16 | 338 | 0.0 | 0.0 | 0.00 | 0.00 | 0.00 | 41 | 1008.6 |
| 20260508013029 | 16 | 86 | 0.0 | 0.0 | 0.00 | 0.00 | 0.00 | 43 | 1008.3 |
| 20260508011535 | 17 | 86 | 0.0 | 0.0 | 0.00 | 0.00 | 0.00 | 38 | 1008.1 |
| 20260508010037 | 17 | 86 | 0.0 | 0.0 | 0.00 | 0.00 | 0.00 | 39 | 1008.1 |
| 20260508004537 | 18 | 86 | 0.0 | 0.0 | 0.00 | 0.00 | 0.00 | 35 | 1008.0 |
| 20260508003028 | 18 | 86 | 0.0 | 0.0 | 0.00 | 0.00 | 0.00 | 32 | 1007.9 |
| 20260508001529 | 18 | 86 | 0.0 | 0.0 | 0.00 | 0.00 | 0.00 | 32 | 1008.1 |
| 20260508000026 | 19 | 86 | 0.0 | 0.0 | 0.00 | 0.00 | 0.00 | 34 | 1008.4 |
| 20260507234531 | 20 | 86 | 0.0 | 0.0 | 0.00 | 0.00 | 0.00 | 32 | 1008.2 |
| 20260507233027 | 20 | 86 | 0.0 | 0.0 | 0.00 | 0.00 | 0.00 | 27 | 1008.3 |
| 20260507231521 | 20 | 86 | 0.0 | 0.0 | 0.00 | 0.00 | 0.00 | 30 | 1008.5 |
| 20260507230019 | 20 | 292 | 0.0 | 0.0 | 0.00 | 0.00 | 0.00 | 27 | 1008.7 |
| 20260507224522 | 20 | 348 | 0.0 | 0.0 | 0.00 | 0.10 | 0.00 | 28 | 1008.9 |
| 20260507223017 | 20 | 34 | 0.0 | 0.0 | 0.00 | 0.10 | 0.00 | 27 | 1008.9 |
| 20260507221517 | 20 | 344 | 0.0 | 14.5 | 0.00 | 0.10 | 0.00 | 27 | 1009.2 |
| 20260507220013 | 21 | 257 | 0.0 | 17.7 | 0.00 | 0.10 | 0.00 | 30 | 1009.5 |
| 20260507214518 | 21 | 313 | 1.6 | 16.1 | 0.00 | 0.38 | 0.00 | 31 | 1010.0 |
| 20260507213008 | 20 | 248 | 4.8 | 14.5 | 0.00 | 0.38 | 0.00 | 30 | 1010.4 |
| 20260507211503 | 18 | 89 | 0.0 | 0.0 | 0.00 | 0.38 | 0.00 | 33 | 1010.8 |
| 20260507204558 | 17 | 344 | 0.0 | 0.0 | 0.00 | 0.64 | 0.00 | 33 | 1011.4 |
| 20260507203157 | 17 | 344 | 0.0 | 0.0 | 0.00 | 0.64 | 0.00 | 35 | 1011.7 |
| 20260507201556 | 17 | 345 | 0.0 | 0.0 | 0.00 | 0.64 | 0.00 | 34 | 1012.0 |
| 20260507200053 | 17 | 252 | 0.0 | 11.3 | 0.00 | 0.64 | 0.00 | 34 | 1012.2 |
| 20260507194550 | 17 | 256 | 3.2 | 19.3 | 0.00 | 1.09 | 0.00 | 32 | 1012.4 |
| 20260507193055 | 17 | 329 | 9.7 | 24.1 | 0.00 | 1.09 | 0.00 | 38 | 1012.7 |
| 20260507191547 | 16 | 258 | 6.4 | 22.5 | 0.00 | 1.09 | 0.00 | 39 | 1012.9 |
| 20260507190043 | 15 | 261 | 8.0 | 25.7 | 0.00 | 1.09 | 0.00 | 36 | 1013.2 |
| 20260507184541 | 15 | 242 | 0.0 | 19.3 | 0.00 | 1.22 | 0.00 | 37 | 1013.4 |
| 20260507183037 | 15 | 333 | 1.6 | 16.1 | 0.00 | 1.22 | 0.00 | 37 | 1013.6 |
| 20260507181537 | 15 | 236 | 4.8 | 16.1 | 0.00 | 1.22 | 0.00 | 39 | 1013.6 |
| 20260507180034 | 14 | 288 | 0.0 | 0.0 | 0.00 | 1.22 | 0.00 | 41 | 1014.0 |
| 20260507174546 | 13 | 292 | 0.0 | 0.0 | 0.00 | 1.30 | 0.00 | 42 | 1014.3 |